�������l�o���
Date,Time,MP-1(��Sv/h),MP-2(��Sv/h),MP-3(��Sv/h),MP-4(��Sv/h),MP-5(��Sv/h),MP-6(��Sv/h),MP-7(��Sv/h),MP-8(��Sv/h),����,����(m/s),���J
2019/11/16,00:00,0.729,1.045,0.689,1.291,0.916,0.418,0.723,0.683,���k��,6.3,��
2019/11/16,00:10,0.726,1.044,0.689,1.291,0.915,0.416,0.724,0.685,���k��,6.1,��
2019/11/16,00:20,0.726,1.044,0.689,1.291,0.914,0.417,0.722,0.686,���k��,6.0,��
2019/11/16,00:30,0.724,1.044,0.688,1.294,0.916,0.416,0.724,0.683,���k��,6.3,��
2019/11/16,00:40,0.728,1.042,0.690,1.290,0.914,0.417,0.724,0.684,���k��,6.3,��
2019/11/16,00:50,0.726,1.045,0.689,1.290,0.912,0.416,0.724,0.683,���k��,6.4,��
2019/11/16,01:00,0.726,1.044,0.690,1.290,0.914,0.415,0.721,0.684,���k��,7.7,��
2019/11/16,01:10,0.728,1.046,0.690,1.293,0.915,0.418,0.724,0.684,��,6.3,��
2019/11/16,01:20,0.729,1.046,0.690,1.290,0.914,0.417,0.724,0.684,��,6.9,��
2019/11/16,01:30,0.726,1.045,0.689,1.293,0.915,0.417,0.724,0.682,���k��,6.9,��
2019/11/16,01:40,0.727,1.044,0.691,1.293,0.913,0.417,0.722,0.685,���k��,8.0,��
2019/11/16,01:50,0.727,1.044,0.690,1.293,0.914,0.416,0.724,0.682,���k��,8.8,��
2019/11/16,02:00,0.727,1.046,0.689,1.291,0.913,0.418,0.723,0.684,���k��,9.3,��
2019/11/16,02:10,0.726,1.043,0.690,1.289,0.914,0.417,0.723,0.684,���k��,7.1,��
2019/11/16,02:20,0.727,1.043,0.691,1.294,0.913,0.417,0.723,0.685,�k��,7.2,��
2019/11/16,02:30,0.726,1.043,0.689,1.289,0.915,0.416,0.722,0.684,���k��,7.7,��
2019/11/16,02:40,0.726,1.045,0.689,1.293,0.913,0.416,0.722,0.683,�k�k��,3.2,��
2019/11/16,02:50,0.728,1.043,0.691,1.291,0.913,0.415,0.725,0.685,�k,3.9,��
2019/11/16,03:00,0.726,1.044,0.689,1.291,0.914,0.415,0.723,0.683,�k,4.5,��
2019/11/16,03:10,0.726,1.046,0.688,1.293,0.915,0.417,0.722,0.684,�k��,2.9,��
2019/11/16,03:20,0.727,1.045,0.688,1.292,0.915,0.417,0.724,0.684,���k��,6.0,��
2019/11/16,03:30,0.726,1.043,0.690,1.293,0.916,0.416,0.724,0.686,���k��,5.2,��
2019/11/16,03:40,0.726,1.044,0.688,1.292,0.912,0.414,0.724,0.685,�k��,4.0,��
2019/11/16,03:50,0.727,1.042,0.690,1.292,0.913,0.415,0.724,0.686,�k��,1.8,��
2019/11/16,04:00,0.726,1.045,0.688,1.292,0.912,0.416,0.722,0.685,�k��,2.2,��
2019/11/16,04:10,0.726,1.044,0.688,1.291,0.910,0.416,0.723,0.684,�k�k��,1.6,��
2019/11/16,04:20,0.726,1.043,0.689,1.292,0.914,0.417,0.723,0.684,�k�k��,2.6,��
2019/11/16,04:30,0.725,1.046,0.688,1.291,0.913,0.417,0.724,0.684,�k�k��,1.9,��
2019/11/16,04:40,0.726,1.044,0.690,1.291,0.912,0.415,0.724,0.684,�k��,2.5,��
2019/11/16,04:50,0.725,1.043,0.689,1.291,0.914,0.416,0.723,0.685,�k��,1.4,��
2019/11/16,05:00,0.726,1.044,0.690,1.291,0.913,0.415,0.725,0.685,�k,1.8,��
2019/11/16,05:10,0.727,1.041,0.690,1.291,0.913,0.415,0.726,0.684,�k�k��,1.9,��
2019/11/16,05:20,0.725,1.042,0.689,1.289,0.912,0.414,0.724,0.682,�k,2.7,��
2019/11/16,05:30,0.724,1.041,0.689,1.291,0.913,0.418,0.722,0.684,�k�k��,2.9,��
2019/11/16,05:40,0.727,1.044,0.688,1.291,0.915,0.416,0.723,0.685,�k��,2.8,��
2019/11/16,05:50,0.723,1.041,0.688,1.292,0.914,0.416,0.722,0.682,�k�k��,2.7,��
2019/11/16,06:00,0.725,1.041,0.690,1.290,0.913,0.415,0.722,0.683,�k��,2.2,��
2019/11/16,06:10,0.724,1.042,0.689,1.290,0.912,0.415,0.721,0.682,�k��,3.5,��
2019/11/16,06:20,0.727,1.044,0.688,1.291,0.912,0.415,0.723,0.683,�k��,3.5,��
2019/11/16,06:30,0.723,1.042,0.689,1.293,0.913,0.416,0.723,0.684,�k��,3.2,��
2019/11/16,06:40,0.725,1.045,0.689,1.292,0.914,0.416,0.721,0.681,���k��,2.7,��
2019/11/16,06:50,0.723,1.043,0.689,1.292,0.912,0.415,0.722,0.685,��,2.3,��
2019/11/16,07:00,0.727,1.043,0.689,1.292,0.913,0.414,0.724,0.684,���k��,2.5,��
2019/11/16,07:10,0.725,1.041,0.688,1.293,0.915,0.414,0.722,0.684,���쐼,1.8,��
2019/11/16,07:20,0.724,1.041,0.687,1.291,0.913,0.414,0.723,0.684,���쐼,2.3,��
2019/11/16,07:30,0.725,1.043,0.689,1.290,0.913,0.417,0.724,0.684,��,1.5,��
2019/11/16,07:40,0.726,1.044,0.688,1.293,0.912,0.416,0.722,0.685,�k�k��,0.5,��
2019/11/16,07:50,0.726,1.045,0.687,1.288,0.914,0.416,0.724,0.683,-,CALM,��
2019/11/16,08:00,0.724,1.044,0.687,1.292,0.913,0.416,0.725,0.684,-,CALM,��
2019/11/16,08:10,0.725,1.046,0.690,1.290,0.913,0.415,0.725,0.683,���k��,0.8,��
2019/11/16,08:20,0.725,1.044,0.688,1.293,0.914,0.415,0.723,0.683,-,CALM,��
2019/11/16,08:30,0.726,1.044,0.688,1.293,0.915,0.416,0.724,0.686,-,CALM,��
2019/11/16,08:40,0.725,1.045,0.689,1.295,0.914,0.417,0.724,0.684,�쐼,1.3,��
2019/11/16,08:50,0.727,1.042,0.688,1.292,0.916,0.416,0.725,0.685,���쐼,2.7,��
2019/11/16,09:00,0.726,1.040,0.687,1.295,0.913,0.415,0.723,0.685,��,3.8,��
2019/11/16,09:10,0.727,1.042,0.689,1.292,0.913,0.417,0.723,0.684,���k��,2.4,��
2019/11/16,09:20,0.727,1.040,0.689,1.292,0.915,0.417,0.722,0.684,�k��,2.1,��
2019/11/16,09:30,0.727,1.039,0.689,1.290,0.914,0.417,0.720,0.686,��,1.3,��
2019/11/16,09:40,0.727,1.036,0.688,1.295,0.915,0.416,0.721,0.686,��,1.2,��
2019/11/16,09:50,0.728,1.037,0.688,1.293,0.914,0.417,0.724,0.686,-,CALM,��
2019/11/16,10:00,0.727,1.039,0.688,1.292,0.916,0.418,0.722,0.685,�쓌,1.3,��
2019/11/16,10:10,0.727,1.043,0.688,1.295,0.914,0.418,0.723,0.685,���k��,0.7,��
2019/11/16,10:20,0.727,1.041,0.689,1.294,0.915,0.416,0.722,0.685,-,CALM,��
2019/11/16,10:30,0.726,1.040,0.688,1.294,0.915,0.416,0.722,0.685,-,CALM,��
2019/11/16,10:40,0.729,1.044,0.691,1.295,0.915,0.415,0.722,0.685,-,CALM,��
2019/11/16,10:50,0.728,1.041,0.689,1.296,0.915,0.413,0.723,0.686,���쐼,1.9,��
2019/11/16,11:00,0.726,1.045,0.687,1.294,0.914,0.414,0.724,0.687,���쐼,1.9,��
2019/11/16,11:10,0.728,1.042,0.686,1.294,0.915,0.414,0.724,0.686,��,5.0,��
2019/11/16,11:20,0.726,1.042,0.686,1.295,0.913,0.414,0.722,0.685,��,4.5,��
2019/11/16,11:30,0.725,1.044,0.688,1.293,0.912,0.414,0.722,0.685,��,4.2,��
2019/11/16,11:40,0.725,1.041,0.687,1.295,0.913,0.415,0.723,0.685,���k��,3.6,��
2019/11/16,11:50,0.727,1.042,0.683,1.294,0.914,0.414,0.721,0.684,���k��,2.6,��
2019/11/16,12:00,0.724,1.040,0.683,1.294,0.915,0.414,0.724,0.682,�k��,2.9,��
2019/11/16,12:10,0.726,1.041,0.685,1.293,0.916,0.415,0.724,0.682,���k��,2.2,��
2019/11/16,12:20,0.728,1.046,0.684,1.296,0.916,0.416,0.722,0.682,�k��,2.6,��
2019/11/16,12:30,0.728,1.043,0.686,1.291,0.918,0.416,0.723,0.682,���k��,2.8,��
2019/11/16,12:40,0.728,1.046,0.689,1.295,0.915,0.417,0.721,0.685,���k��,2.8,��
2019/11/16,12:50,0.730,1.045,0.693,1.294,0.916,0.416,0.722,0.684,��,2.2,��
2019/11/16,13:00,0.729,1.047,0.692,1.295,0.918,0.418,0.722,0.685,���쐼,2.7,��
2019/11/16,13:10,0.726,1.047,0.691,1.293,0.916,0.418,0.721,0.687,��,2.0,��
2019/11/16,13:20,0.729,1.044,0.692,1.294,0.913,0.417,0.723,0.685,��,1.1,��
2019/11/16,13:30,0.728,1.045,0.690,1.294,0.917,0.415,0.722,0.684,���쐼,2.1,��
2019/11/16,13:40,0.727,1.046,0.691,1.294,0.917,0.415,0.721,0.686,���쐼,2.3,��
2019/11/16,13:50,0.728,1.045,0.689,1.294,0.914,0.419,0.722,0.686,��,2.0,��
2019/11/16,14:00,0.728,1.048,0.691,1.297,0.917,0.417,0.723,0.686,���쐼,1.6,��
2019/11/16,14:10,0.730,1.046,0.691,1.294,0.917,0.418,0.722,0.686,�k��,2.0,��
2019/11/16,14:20,0.728,1.048,0.691,1.295,0.916,0.417,0.722,0.685,�k��,2.7,��
2019/11/16,14:30,0.729,1.045,0.690,1.295,0.917,0.417,0.723,0.684,��,2.5,��
2019/11/16,14:40,0.728,1.045,0.692,1.297,0.918,0.418,0.722,0.686,���쐼,3.4,��
2019/11/16,14:50,0.727,1.045,0.691,1.296,0.917,0.418,0.722,0.685,��,3.5,��
2019/11/16,15:00,0.729,1.049,0.691,1.294,0.913,0.418,0.725,0.686,���쐼,2.2,��
2019/11/16,15:10,0.729,1.046,0.692,1.293,0.914,0.417,0.723,0.686,��,1.5,��
2019/11/16,15:20,0.730,1.046,0.691,1.292,0.915,0.417,0.723,0.685,���k��,1.1,��
2019/11/16,15:30,0.726,1.051,0.690,1.296,0.913,0.416,0.722,0.684,�k��,1.8,��
2019/11/16,15:40,0.726,1.049,0.691,1.293,0.915,0.418,0.723,0.686,�k��,3.0,��
2019/11/16,15:50,0.727,1.048,0.692,1.294,0.914,0.417,0.723,0.685,�k��,2.1,��
2019/11/16,16:00,0.728,1.049,0.690,1.295,0.915,0.418,0.722,0.684,�k�k��,2.1,��
2019/11/16,16:10,0.729,1.051,0.689,1.296,0.916,0.418,0.723,0.685,�k��,2.5,��
2019/11/16,16:20,0.727,1.050,0.691,1.296,0.918,0.418,0.724,0.684,�k��,1.6,��
2019/11/16,16:30,0.728,1.047,0.690,1.294,0.915,0.417,0.723,0.685,���k��,1.7,��
2019/11/16,16:40,0.730,1.049,0.692,1.295,0.917,0.418,0.723,0.686,���k��,2.0,��
2019/11/16,16:50,0.728,1.050,0.691,1.293,0.918,0.417,0.723,0.686,�k��,2.1,�L
2019/11/16,17:00,0.729,1.049,0.693,1.295,0.917,0.416,0.723,0.684,�k��,2.6,��
2019/11/16,17:10,0.729,1.047,0.690,1.294,0.918,0.417,0.724,0.684,�k��,2.7,��
2019/11/16,17:20,0.729,1.049,0.691,1.296,0.916,0.417,0.722,0.685,���k��,2.4,��
2019/11/16,17:30,0.727,1.049,0.691,1.295,0.918,0.418,0.723,0.685,�k�k��,2.3,��
2019/11/16,17:40,0.728,1.048,0.691,1.297,0.916,0.418,0.723,0.683,�k��,3.4,��
2019/11/16,17:50,0.726,1.050,0.692,1.294,0.916,0.416,0.724,0.685,�k��,2.7,��
2019/11/16,18:00,0.727,1.048,0.691,1.294,0.918,0.417,0.724,0.685,�k��,1.6,��
2019/11/16,18:10,0.725,1.049,0.691,1.295,0.917,0.418,0.725,0.685,�k��,2.1,��
2019/11/16,18:20,0.726,1.047,0.691,1.295,0.918,0.417,0.725,0.685,�k��,1.6,��
2019/11/16,18:30,0.727,1.049,0.691,1.295,0.917,0.417,0.725,0.685,�k��,3.8,��
2019/11/16,18:40,0.728,1.047,0.690,1.294,0.917,0.415,0.725,0.686,�k��,3.8,��
2019/11/16,18:50,0.727,1.047,0.692,1.295,0.915,0.416,0.723,0.685,���k��,3.8,��
2019/11/16,19:00,0.726,1.049,0.691,1.295,0.919,0.416,0.723,0.683,���k��,4.0,��
2019/11/16,19:10,0.727,1.048,0.691,1.297,0.918,0.416,0.722,0.685,���k��,2.9,��
2019/11/16,19:20,0.726,1.046,0.691,1.294,0.917,0.416,0.721,0.685,�k��,2.2,��
2019/11/16,19:30,0.728,1.050,0.690,1.295,0.917,0.416,0.722,0.686,�k��,1.7,��
2019/11/16,19:40,0.728,1.046,0.691,1.296,0.916,0.416,0.722,0.685,�k��,2.1,��
2019/11/16,19:50,0.728,1.048,0.692,1.293,0.916,0.418,0.722,0.686,�k�k��,2.4,��
2019/11/16,20:00,0.726,1.048,0.690,1.293,0.917,0.416,0.724,0.685,�k��,2.8,��
2019/11/16,20:10,0.728,1.046,0.690,1.296,0.916,0.416,0.724,0.684,���k��,2.1,��
2019/11/16,20:20,0.728,1.051,0.691,1.295,0.917,0.416,0.723,0.685,���k��,2.2,��
2019/11/16,20:30,0.726,1.047,0.691,1.293,0.917,0.416,0.723,0.685,���k��,3.0,��
2019/11/16,20:40,0.727,1.047,0.692,1.296,0.917,0.415,0.722,0.684,���k��,3.1,��
2019/11/16,20:50,0.728,1.045,0.691,1.296,0.914,0.415,0.723,0.686,���k��,3.0,��
2019/11/16,21:00,0.728,1.049,0.691,1.295,0.916,0.416,0.722,0.686,���k��,3.4,��
2019/11/16,21:10,0.726,1.049,0.690,1.295,0.918,0.417,0.726,0.686,���k��,4.0,��
2019/11/16,21:20,0.727,1.048,0.690,1.295,0.916,0.416,0.723,0.683,��,4.4,��
2019/11/16,21:30,0.725,1.046,0.691,1.295,0.920,0.416,0.724,0.685,��,0.8,��
2019/11/16,21:40,0.728,1.048,0.691,1.296,0.917,0.417,0.724,0.684,�쐼,1.0,��
2019/11/16,21:50,0.728,1.047,0.690,1.295,0.918,0.416,0.724,0.685,��,1.4,��
2019/11/16,22:00,0.726,1.048,0.691,1.294,0.915,0.415,0.724,0.685,���k��,0.7,��
2019/11/16,22:10,0.726,1.050,0.691,1.296,0.916,0.416,0.723,0.685,�k��,2.3,��
2019/11/16,22:20,0.727,1.049,0.688,1.294,0.918,0.416,0.723,0.683,�k�k��,1.6,��
2019/11/16,22:30,0.726,1.048,0.690,1.297,0.918,0.415,0.722,0.685,���k��,1.5,��
2019/11/16,22:40,0.727,1.048,0.690,1.295,0.916,0.415,0.724,0.684,��,2.2,��
2019/11/16,22:50,0.729,1.048,0.689,1.295,0.916,0.415,0.722,0.684,���k��,2.2,��
2019/11/16,23:00,0.729,1.047,0.691,1.293,0.916,0.417,0.723,0.685,���k��,3.8,��
2019/11/16,23:10,0.726,1.048,0.691,1.298,0.916,0.415,0.723,0.685,��,3.6,�L
2019/11/16,23:20,0.727,1.048,0.692,1.295,0.917,0.414,0.721,0.685,��,1.3,��
2019/11/16,23:30,0.728,1.046,0.690,1.296,0.917,0.415,0.725,0.685,���k��,2.3,��
2019/11/16,23:40,0.727,1.047,0.692,1.296,0.916,0.417,0.723,0.686,���k��,2.8,��
2019/11/16,23:50,0.728,1.048,0.693,1.295,0.918,0.415,0.724,0.686,��,3.5,��
